STARLINK-2696 (48484 NORAD) Tracking and Keplerian Element Data

This shows tracking and keplerian element data for the satellite.

Feedback or suggestion? Click here.




ElementValue
Catalog48484
NameSTARLINK-2696
Epoch Orbit1385
Epoch Day210.97846311
Epoch Year2021
RAAN200.0759
Inclination53.054
Eccentricity9.94E-05
Argument of Perigee39.8927
Mean Anonmoly320.2135
Mean Motion15.06388115
Decay Rate3E-06
L11 48484U 21040BJ 21210.97846311 .00000300 00000-0 39018-4 0 9998
L22 48484 53.0540 200.0759 0000994 39.8927 320.2135 15.06388115 13851

Live tracking and technical data element details for STARLINK-2696 (NORAD 48484). STARLINK-2696 can be tracked NOW for your location showing map with azimuth and elevation plus other details from your city location.

Track the satellite on the map from your city or location and see movement details for azimuth, elevation, latitude, longitude, range, height, and movement on the map or in text.







IsCatalogInMostPopularTable: catalog: 48484, numindb: 31
Update: records affected: 1



GetName: 48484 STARLINK-2696

Hit Count: updated at: Sat, 31 Jul 2021 14:36:08 GMT